Regional Weather Roundup
Issued by NWS

Home | Current Version | Previous Version | Graphics & Text | Print | Product List | Glossary Off
Versions: 1 2 3 4 5 6 7 8 9 10 11 12 13 14 15 16 17 18 19 20 21 22 23 24 25 26 27 28 29 30 31 32 33 34 35 36 37 38 39 40 41 42 43 44 45 46 47 48 49

000
ASUS43 KDMX 290507
RWRIA

WEATHER ROUNDUP FOR IOWA
NATIONAL WEATHER SERVICE DES MOINES IA
1200 AM CDT WED JUL 29 2015

NOTE: "FAIR" INDICATES FEW OR NO CLOUDS BELOW 12,000 FEET WITH NO
SIGNIFICANT WEATHER AND/OR OBSTRUCTIONS TO VISIBILITY.

* - THESE STATIONS ARE NOT NWS STATIONS...THUS NOT UNDER NWS
QUALITY CONTROL.  THEY ALSO DO NOT REPORT WEATHER SUCH
AS PRECIPITATION OR FOG.

IAZ001>003-012>014-020>022-031>034-043>046-290600-
   NORTHWEST IOWA

CITY           SKY/WX    TMP DP  RH WIND       PRES   REMARKS
CARROLL *      CLOUDY    70  66  88 N5        30.03R
CHEROKEE *     PTCLDY    61  61 100 CALM      30.04R
DENISON *      CLEAR     66  63  88 CALM      30.02S
LE MARS *      CLEAR     61  61 100 CALM      30.05R
ORANGE CITY *  CLEAR     63  61  94 CALM      30.04R
SHELDON *      CLEAR     57  57 100 CALM      30.03R
SIOUX CITY     CLEAR     67  60  78 CALM      30.04R
SPENCER        MOCLDY    62  59  90 W3        30.02S
STORM LAKE *   CLEAR     66  59  77 NW5       30.04S
$$

IAZ055>058-069>071-079>083-090>094-290600-
   SOUTHWEST IOWA

CITY           SKY/WX    TMP DP  RH WIND       PRES   REMARKS
ATLANTIC *     CLOUDY    73  70  88 N7        30.02R
AUDUBON *      MOCLDY    72  66  83 N5        30.04S
CLARINDA *     DRIZZLE   75  75 100 NE6       30.01R
COUNCIL BLFS * CLOUDY    73  64  73 NE7       30.04R
CRESTON *      DRIZZLE   72  72 100 W6G13     29.99S
HARLAN  *      PTCLDY    70  70 100 CALM      30.08R
LAMONI         TSTM      71  69  93 SE8       30.01F FOG
RED OAK *      CLOUDY    73  72  94 N12       29.99F
SHENANDOAH *   CLOUDY    73  72  94 N8        30.01R
$$

IAZ047>049-059>061-072>074-084-290600-
   CENTRAL IOWA

CITY           SKY/WX    TMP DP  RH WIND       PRES   REMARKS
AMES           LGT RAIN  70  32  24 CALM      30.00S
ANKENY *       DRIZZLE   72  72 100 CALM      29.99S
CHARITON *     LGT RAIN  70  70 100 E10       30.01R
DES MOINES     TSTM      72  69  90 NW3       29.97F
GRINNELL*      LGT RAIN  72  68  88 W18G24    29.99S
KNOXVILLE *    LGT RAIN  70  68  94 SW8       29.98R
MARSHALLTOWN   CLOUDY    72  69  90 W9        29.98R
PELLA *        RAIN      70  70 100 W9        30.00R
PERRY *        CLOUDY    70  68  94 CALM      30.00F
$$

IAZ004>006-015-016-023>025-035-036-290600-
   NORTH CENTRAL IOWA

CITY           SKY/WX    TMP DP  RH WIND       PRES   REMARKS
ALGONA *       CLEAR     64  63  94 CALM      30.02S
CLARION *      MOCLDY    72  68  88 NW8       30.01S
ESTHERVILLE    CLOUDY    62  59  90 W8        30.01S
FORT DODGE *   CLOUDY    73  66  78 CALM      30.03S
MASON CITY     CLOUDY    68  64  87 NW10      30.01R
FOREST CITY *  CLEAR     68  63  83 CALM      30.01S
IOWA FALLS *   CLOUDY    73  72  94 W8        30.01R
$$

IAZ007>011-017>019-026>030-037>042-050>054-066-290600-
   NORTHEAST IOWA

CITY           SKY/WX    TMP DP  RH WIND       PRES   REMARKS
CEDAR RAPIDS   LGT RAIN  71  71 100 SE3       29.97S
CHARLES CITY * MOCLDY    75  75 100 W6        29.99R
CLINTON *      CLOUDY    73  72  94 CALM      29.97F
DECORAH *      CLOUDY    73  72  94 SW3       29.96R
DUBUQUE        CLOUDY    73  71  93 W3        29.97S
MONTICELLO *   CLOUDY    73  72  94 CALM      29.97F
OELWEIN *      MOCLDY    72  72 100 CALM      29.98S
WATERLOO       LGT RAIN  73  72  96 W3        29.96R
$$

IAZ064-065-067-068-078-290600-
   EAST CENTRAL IOWA

CITY           SKY/WX    TMP DP  RH WIND       PRES   REMARKS
DAVENPORT      CLOUDY    76  74  93 NW5       29.96R
IOWA CITY      LGT RAIN  73  72  96 W3        29.97F
MT. PLEASANT * CLOUDY    75  66  73 NE8       29.94F
MUSCATINE *    PTCLDY    75  73  94 CALM      29.95F
QUAD CITIES    CLOUDY    78  75  90 W3        29.94S HX  81
$$

IAZ062-063-075>077-085>089-095>099-290600-
   SOUTHEAST IOWA

CITY           SKY/WX    TMP DP  RH WIND       PRES   REMARKS
BURLINGTON     CLOUDY    78  73  84 N9        29.94F HX  81
FAIRFIELD *    MOCLDY    72  70  94 CALM      29.96F
FORT MADISON * PTCLDY    73  73 100 N5        29.97F
KEOKUK *       PTCLDY    77  72  83 NW6       29.95S
OSKALOOSA *    RAIN      72  70  94 W6        29.99R
CENTERVILLE *  MOCLDY    70  68  94 NW15      29.99F
OTTUMWA        TSTM      71  71 100 SW3       29.94S
WASHINGTON *   LGT RAIN  72  72 100 NE8       29.97F
$$

ABBREVIATIONS USED IN REMARKS
   TC - TEMPERATURES IN CELSIUS
  WCI - WIND CHILL INDEX
   HX - HEAT INDEX
  VSB - VISIBILITY
$$




USA.gov is the U.S. government's official web portal to all federal, state and local government web resources and services.